Weather History for Fort Knox, KY

Change the Weather History Date:

Saturday, January 19, 2013

  Actual Average Record
Temperature  
Mean Temperature 44 °F -  
Max Temperature 54 °F 38 °F 62 °F (2006)
Min Temperature 35 °F 22 °F 10 °F (2008)
Degree Days  
Heating Degree Days 20    
Moisture  
Dew Point 27 °F    
Average Humidity 51    
Maximum Humidity 68    
Minimum Humidity 34    
Precipitation  
Precipitation 0.00 in - - ()
Sea Level Pressure  
Sea Level Pressure 30.17 in    
Wind  
Wind Speed 14 mph (SSW)    
Max Wind Speed 22 mph    
Max Gust Speed 31 mph    
Visibility 10 miles    
Events      
Averages and records for this station are not official NWS values.
T = Trace of Precipitation, MM = Missing Value Source: NWS Daily Summary

Daily Weather History Graph

Daily Weather History Graph

Search for Another Location

Airport:

Trip Planner

Search our weather history database for the weather conditions in past years. The results will help you decide how hot, cold, wet, or windy it might be!

Date:

Astronomy

Jan. 19, 2013 Rise Set
Actual Time 7:56 AM EST 5:53 PM EST
Civil Twilight 7:28 AM EST 6:21 PM EST
Nautical Twilight 6:56 AM EST 6:53 PM EST
Astronomical Twilight 6:24 AM EST 7:25 PM EST
Moon 12:17 PM EST (1/19) 1:31 AM EST (1/19)
Length of Visible Light 10h 53m
Length of Day
9h 56m
First Quarter, 57% of the Moon is Illuminated
Jan 19
First Quarter
Jan 26
Full
Feb 3
Last Quarter
Feb 10
New
Feb 17
First Quarter

Hourly Weather History & Observations

Time (EST) Temp. Windchill Dew Point Humidity Pressure Visibility Wind Dir Wind Speed Gust Speed Precip Events Conditions
12:55 AM 35.4 °F 28.4 °F 25.9 °F 68% 30.30 in 10.0 mi SSW 9.2 mph - N/A   Clear
1:55 AM 38.3 °F 30.1 °F 25.5 °F 60% 30.29 in 10.0 mi SSW 13.8 mph 20.7 mph N/A   Clear
2:55 AM 38.8 °F 30.4 °F 25.7 °F 59% 30.29 in 10.0 mi SSW 15.0 mph - N/A   Clear
3:55 AM 38.5 °F 29.2 °F 25.5 °F 60% 30.28 in 10.0 mi South 17.3 mph 21.9 mph N/A   Clear
4:55 AM 38.1 °F 30.2 °F 25.9 °F 61% 30.26 in 10.0 mi SSW 12.7 mph - N/A   Clear
5:55 AM 37.4 °F 28.9 °F 24.8 °F 60% 30.26 in 10.0 mi SSW 13.8 mph - N/A   Clear
6:55 AM 36.9 °F 29.1 °F 25.0 °F 62% 30.26 in 10.0 mi SSW 11.5 mph - N/A   Clear
7:55 AM 36.5 °F 27.8 °F 25.9 °F 65% 30.27 in 10.0 mi SSW 13.8 mph - N/A   Clear
8:55 AM 38.7 °F 29.1 °F 26.4 °F 61% 30.27 in 10.0 mi SSW 18.4 mph 24.2 mph N/A   Clear
9:55 AM 42.6 °F 34.0 °F 27.7 °F 56% 30.26 in 10.0 mi SSW 19.6 mph 25.3 mph N/A   Clear
10:55 AM 46.0 °F 39.0 °F 29.1 °F 52% 30.25 in 10.0 mi SSW 17.3 mph 24.2 mph N/A   Clear
11:55 AM 49.6 °F - 29.3 °F 46% 30.22 in 10.0 mi South 18.4 mph 26.5 mph N/A   Clear
12:55 PM 51.4 °F - 28.6 °F 41% 30.16 in 10.0 mi SSW 20.7 mph 27.6 mph N/A   Clear
1:55 PM 53.6 °F - 29.1 °F 39% 30.11 in 10.0 mi South 19.6 mph 25.3 mph N/A   Clear
2:55 PM 54.9 °F - 26.8 °F 34% 30.09 in 10.0 mi SSW 17.3 mph 25.3 mph N/A   Clear
3:55 PM 54.5 °F - 27.9 °F 36% 30.06 in 10.0 mi South 21.9 mph 28.8 mph N/A   Clear
4:55 PM 53.2 °F - 28.4 °F 38% 30.04 in 10.0 mi South 17.3 mph 31.1 mph N/A   Clear
5:55 PM 50.2 °F - 28.0 °F 42% 30.04 in 10.0 mi South 17.3 mph - N/A   Clear
6:55 PM 48.9 °F - 27.9 °F 44% 30.02 in 10.0 mi South 13.8 mph 23.0 mph N/A   Clear
7:55 PM 48.0 °F - 27.3 °F 45% 30.04 in 10.0 mi SSW 15.0 mph - N/A   Clear
8:55 PM 46.9 °F - 26.4 °F 45% 30.06 in 10.0 mi SSW 10.4 mph - N/A   Clear
9:55 PM 46.0 °F 40.6 °F 26.8 °F 47% 30.05 in 10.0 mi SSW 11.5 mph - N/A   Clear
10:55 PM 46.2 °F 40.5 °F 27.9 °F 49% 30.05 in 10.0 mi SSW 12.7 mph - N/A   Clear
11:55 PM 45.9 °F 39.4 °F 29.3 °F 52% 30.05 in 10.0 mi SW 15.0 mph 19.6 mph N/A   Clear